Regional Weather Roundup
Issued by NWS Portland, ME

Home | Current Version | Previous Version | Text Only | Print | Product List | Glossary On
Versions: 1 2 3 4 5 6 7 8 9 10 11 12 13 14 15 16 17 18 19 20 21 22 23 24 25 26 27 28 29 30 31 32 33 34 35 36 37 38 39 40 41 42 43 44 45 46 47 48 49 50
000
ASUS41 KGYX 291210
RWRGYX
WEATHER ROUNDUP FOR MAINE AND NEW HAMPSHIRE
NATIONAL WEATHER SERVICE GRAY ME
800 AM EDT FRI MAY 29 2015

MEZ002-005-006-010-012-015-018-020-021-024-026-027-029-291300-
MAINE

CITY           SKY/WX    TMP DP  RH WIND       PRES   REMARKS
PORTLAND       MOSUNNY   71  61  70 N8        30.28R
6HR MIN TEMP:  62; 6HR MAX TEMP:  71;

SANFORD        SUNNY     68  54  60 N10       30.30R
BAR HARBOR     MOSUNNY   64  63  94 N10       30.27R
WISCASSET      SUNNY     68  59  73 VRB7      30.29R
6HR MIN TEMP:  60; 6HR MAX TEMP:  68;

ROCKLAND       SUNNY     64  57  77 NE9       30.25S
FRYEBURG       SUNNY     67  55  65 NW3       30.31R
6HR MIN TEMP:  52; 6HR MAX TEMP:  67;

LEWISTONAUBURN CLOUDY    66  55  68 N10       30.30R
AUGUSTA        SUNNY     66  57  72 NE9       30.30R
6HR MIN TEMP:  61; 6HR MAX TEMP:  66;

WATERVILLE     SUNNY     66  55  68 N8        30.28R
BANGOR         MOSUNNY   63  54  72 N12       30.30R
6HR MIN TEMP:  58; 6HR MAX TEMP:  63;

GREENVILLE       N/A     59  51  75 VRB3      30.32R
6HR MIN TEMP:  54; 6HR MAX TEMP:  59;

MILLINOCKET    PTSUNNY   63  47  55 N9        30.32R
6HR MIN TEMP:  60; 6HR MAX TEMP:  63;

HOULTON        PTSUNNY   59  53  80 N7        30.31R
6HR MIN TEMP:  53; 6HR MAX TEMP:  59;

PRESQUE ISLE   SUNNY     57  46  67 N5        30.33S
6HR MIN TEMP:  50; 6HR MAX TEMP:  59;

FRENCHVILLE    SUNNY     55  43  63 E5        30.33S
6HR MIN TEMP:  43; 6HR MAX TEMP:  55;

CARIBOU        SUNNY     57  48  72 NE6       30.32S
6HR MIN TEMP:  50; 6HR MAX TEMP:  57;

$$

NHZ002-005-008-009-011-012-014-291300-
NEW HAMPSHIRE

CITY           SKY/WX    TMP DP  RH WIND       PRES   REMARKS
PORTSMOUTH     MOSUNNY   69  57  66 N5        30.28R
ROCHESTER      MOSUNNY   67  57  70 N5        30.29R
6HR MIN TEMP:  56; 6HR MAX TEMP:  67;

NASHUA         SUNNY     67  58  72 NW8       30.31R
MANCHESTER     MOSUNNY   67  56  67 NW8       30.29R
6HR MIN TEMP:  61; 6HR MAX TEMP:  67;

CONCORD        SUNNY     65  56  72 NW6       30.31R
6HR MIN TEMP:  53; 6HR MAX TEMP:  65;

LACONIA        SUNNY     64  55  72 CALM      30.29R
PLYMOUTH       FAIR      64  59  84 W5        30.31R
BERLIN         SUNNY     63  54  72 CALM      30.34R
6HR MIN TEMP:  57; 6HR MAX TEMP:  63;

WHITEFIELD     CLOUDY    62  56  80 CALM      30.35R
6HR MIN TEMP:  53; 6HR MAX TEMP:  62;

JAFFREY        SUNNY     63  56  78 VRB3      30.32S
6HR MIN TEMP:  52; 6HR MAX TEMP:  63;

KEENE          SUNNY     61  55  82 CALM      30.33S
LEBANON        SUNNY     63  57  81 CALM      30.34R
6HR MIN TEMP:  51; 6HR MAX TEMP:  63;

MT WASHINGTON  MOSUNNY   48  32  53 NW7         N/A
6HR MIN TEMP:  42; 6HR MAX TEMP:  49;

$$

VTZ005-007-008-291300-
VERMONT

CITY           SKY/WX    TMP DP  RH WIND       PRES   REMARKS
MONTPELIER     CLOUDY    59  55  87 CALM      30.38S
BURLINGTON     PTSUNNY   60  57  89 CALM      30.33S
$$

MAZ007-012-024-CTZ003-RIZ002-NYZ038-NYZ072-291300-
SOUTHERN NEW ENGLAND AND NY

CITY           SKY/WX    TMP DP  RH WIND       PRES   REMARKS
BOSTON         MOSUNNY   70  57  63 N6        30.29R
WORCESTER      SUNNY     66  54  65 N8        30.32R
NANTUCKET      SUNNY     70  58  65 N6        30.27S
PROVIDENCE     MOSUNNY   69  56  62 N7        30.29R
HARTFORD       MOSUNNY   66  56  70 VRB3      30.30S
ALBANY         MOSUNNY   64  55  72 CALM      30.34R
NEW YORK CITY  SUNNY     67  54  63 NE8       30.30R
$$

ANZ081-ANZ082-ANZ150-NHZ014-MEZ023>029-291300-
COASTAL MARINE OBSERVATIONS

STATION/POSITION TIME  TEMP    WIND        PRES    WAVE
                       AIR SEA DIR/SP/G            HT/PER
                 (UTC) (F)     (DEG/KT/KT) (MB)    (FT/S)
MOUNT DESERT ROC 1200   57      30/ 15/ 17   N/A
MATINICUS ROCK   1200   56      10/ 13/ 14   N/A
ISLE OF SHOALS   1200   63      10/  8/ 10   N/A
JEFFREYS LEDGE   1103      50                N/A     2/ 8
CASHES LEDGE BUO 1150   54 51                N/A     3/ 6
GEORGES BANK BUO 1150   56 51  210/ 10/ 12   N/A     3/ 6
$$

.............KEY..............
   WCI - WIND CHILL
   TC  - TEMPERATURE IN CELSIUS
   VSB - VISIBILITY IN MILES
   HX  - HEAT INDEX
   FAIR- INDICATES FEW OR NO CLOUDS BELOW 12,000 FT, WITH NO
         SIGNIFICANT WEATHER AND/OR OBSTRUCTIONS TO VISIBILITY.




USA.gov is the U.S. government's official web portal to all federal, state and local government web resources and services.